Theta_e
363 362 364 365 365 363 352 348 322 331 328 320 321 323 322 334 334 332 329 332 328 336 336 341 338 339 335 333 336 336 336 332 336 322 322 343 356 356 352 350 349 349 352 357 363 368 368 371 370 370 370 371 370 370 369 369 369 369 369 369 368 368 366 366 366 366 366 366 365 366 365 365 366 365 366 365 365 365 364 364 364 364 364 364 364 363 363 363 363 363 363 364 365 366 366 367 366
361 362 366 366 361 356 339 348 328 323 324 319 320 326 327 332 333 328 328 330 331 334 338 339 340 341 341 339 338 338 337 342 344 341 346 351 355 353 350 347 346 350 355 358 362 365 366 369 370 370 370 370 370 369 369 369 369 369 368 368 367 367 366 366 366 366 364 364 363 363 363 364 364 364 364 364 364 363 364 364 364 363 363 363 362 362 362 362 362 362 362 362 363 364 365 365 365
361 364 362 362 356 348 344 342 319 319 315 316 319 326 332 327 327 331 333 332 335 338 340 338 339 338 337 339 336 335 329 346 345 347 345 352 346 349 350 348 351 355 357 360 363 363 366 369 370 371 371 370 370 369 368 369 369 368 368 368 368 367 366 366 365 365 365 365 365 365 365 365 365 366 365 365 365 364 364 364 364 364 364 364 363 363 362 362 362 362 362 363 363 365 365 366 366
362 362 359 356 340 349 332 330 324 320 315 320 319 328 332 330 330 332 333 335 337 338 338 336 334 341 339 333 336 341 339 342 347 345 342 346 349 350 351 352 359 356 358 361 362 363 365 370 371 371 371 370 369 369 369 369 368 368 368 368 367 366 366 365 365 365 365 365 366 365 365 365 365 365 366 365 365 365 365 365 364 364 364 364 363 363 362 361 362 362 362 362 364 365 366 366 367
359 366 361 352 344 329 330 327 325 323 316 322 319 328 330 332 331 332 333 336 337 338 338 338 336 343 344 339 343 335 336 345 346 348 345 350 353 352 351 356 358 356 357 360 362 364 367 371 370 370 370 370 368 369 368 368 368 368 367 367 366 366 365 365 365 364 364 366 366 365 365 366 365 365 366 365 365 365 365 366 366 365 365 365 364 364 363 362 361 362 363 364 364 365 366 367 368
359 362 362 355 338 346 336 325 321 321 327 329 324 326 330 332 331 333 333 336 337 339 339 338 336 336 337 339 343 336 343 336 346 347 348 348 351 352 352 357 356 355 358 360 362 366 368 371 370 370 369 370 368 367 368 368 368 367 367 366 366 366 365 365 364 363 365 365 365 365 365 365 366 365 365 365 369 369 369 368 367 366 365 365 365 365 364 363 363 362 362 363 364 366 366 367 368
355 355 355 351 347 344 325 323 323 324 328 333 329 329 331 333 332 333 332 334 337 338 341 337 340 338 333 340 342 345 349 349 346 346 349 350 352 353 353 353 355 355 357 360 364 366 368 370 370 369 369 369 368 367 368 367 367 367 366 366 366 365 366 365 364 365 365 365 364 365 365 365 365 365 364 365 367 367 367 368 368 367 366 366 364 365 364 363 363 363 363 363 364 366 367 367 369
365 348 346 337 330 331 325 323 323 329 327 333 334 332 334 333 334 333 332 332 331 332 337 337 341 339 335 345 334 345 349 350 348 351 351 353 354 355 354 353 353 354 357 362 365 366 370 371 369 369 368 368 367 367 367 367 367 366 366 365 366 366 366 366 365 365 365 364 365 365 365 364 365 366 369 368 367 366 366 367 367 365 364 364 364 364 364 364 363 363 363 364 365 365 367 368 369
360 349 352 336 325 329 325 322 325 334 332 335 334 338 339 336 335 332 332 334 335 336 335 336 339 333 334 339 337 344 346 350 351 353 352 351 352 354 354 353 353 355 358 362 365 367 368 370 370 369 368 368 367 367 367 367 366 365 365 365 365 365 365 365 364 365 365 365 365 365 365 365 365 368 368 368 367 367 366 366 365 365 364 364 364 363 363 364 364 363 363 365 365 366 367 369 370
351 348 333 330 330 320 320 324 323 326 329 333 335 335 336 336 334 334 332 331 333 335 335 338 340 335 339 335 337 341 345 351 351 349 352 354 355 355 353 354 355 355 357 361 365 365 366 370 370 369 368 368 367 367 367 366 366 365 365 364 364 365 365 363 364 364 364 364 364 365 365 365 365 367 367 367 367 367 366 365 364 365 364 364 364 364 363 363 364 364 365 365 366 367 368 368 369
338 349 343 327 319 318 318 317 324 330 331 336 336 338 338 337 335 332 333 332 338 334 336 340 336 336 339 338 338 348 351 352 349 348 351 352 353 352 352 354 356 358 358 362 364 364 365 366 368 368 368 367 367 366 366 366 365 364 365 364 364 365 364 364 365 364 364 364 364 363 363 364 366 366 366 366 366 366 363 364 365 364 364 363 363 363 363 363 364 365 365 366 367 367 367 368 369
334 334 336 322 320 319 321 321 324 327 333 336 333 338 339 336 335 332 332 330 335 335 334 338 335 343 337 336 336 345 350 350 350 350 352 353 353 352 355 354 357 358 360 363 364 364 365 366 366 368 368 367 366 366 366 365 364 364 364 364 364 364 364 365 365 365 364 364 363 363 363 363 364 365 364 365 364 363 363 364 364 364 363 363 362 363 364 364 364 365 366 366 366 367 367 368 368
336 337 329 324 322 326 326 324 322 327 328 329 332 336 340 336 333 334 332 333 334 333 333 341 343 343 333 335 342 346 346 350 350 353 353 353 354 354 353 353 354 357 362 362 363 364 364 364 365 366 366 367 366 366 366 365 365 364 365 364 363 364 365 365 365 364 363 363 363 363 363 362 363 363 363 362 362 362 363 364 364 364 364 363 364 363 364 364 365 365 365 366 367 367 367 368 368
339 337 330 322 329 326 325 327 327 323 323 331 335 337 338 334 334 335 334 331 332 333 339 343 344 344 338 340 340 340 344 350 351 351 353 354 354 353 356 355 356 361 362 362 362 363 362 363 364 365 365 365 365 365 366 365 365 365 364 364 364 364 365 365 365 364 364 363 362 363 362 362 362 363 362 362 363 362 363 361 364 364 363 364 364 365 365 365 365 365 366 367 367 367 368 368 368
340 344 332 325 323 327 326 321 322 322 326 334 335 337 336 337 337 334 335 333 334 340 342 345 344 341 332 337 336 341 347 351 351 353 352 352 353 353 356 355 356 358 361 361 362 361 361 362 363 364 366 365 365 365 365 363 365 365 364 364 365 364 365 365 364 363 364 364 364 363 362 363 362 362 364 363 364 364 363 362 363 362 363 364 365 366 366 366 367 366 367 368 368 368 368 369 369
347 338 332 324 320 322 322 323 327 324 324 332 336 339 335 336 339 333 337 339 336 342 342 336 344 337 342 341 342 346 351 353 352 352 351 347 353 353 356 357 355 357 359 359 358 360 360 361 362 363 363 365 364 364 365 364 364 364 363 365 365 364 365 365 364 364 363 364 364 363 363 363 363 363 364 363 365 367 365 365 362 363 364 366 366 366 367 367 367 368 368 369 368 369 368 369 371
348 342 327 323 319 321 323 324 324 318 328 331 333 335 333 332 338 340 341 340 335 336 339 340 338 344 342 344 347 350 352 354 353 351 349 348 350 350 351 354 353 356 357 358 358 357 356 356 361 360 361 362 362 364 364 365 364 364 364 363 364 364 365 365 365 365 364 364 364 364 364 363 369 369 367 365 369 368 367 366 363 365 365 365 366 366 367 369 369 369 370 369 370 369 371 370 372
342 330 324 320 323 322 327 328 329 332 332 332 334 335 336 331 335 336 340 338 340 338 339 340 343 342 344 348 350 352 353 352 351 348 345 346 347 346 347 348 349 350 354 355 356 357 355 356 357 359 359 360 361 363 364 364 364 363 364 364 363 364 365 364 364 366 367 366 365 367 368 368 372 372 372 366 369 369 369 365 367 368 366 366 367 367 368 369 370 371 371 371 371 372 371 366 365
334 328 325 320 326 330 337 335 337 335 331 334 335 336 335 333 333 336 337 335 336 335 338 339 340 342 345 347 348 349 350 351 349 347 347 347 347 346 345 346 347 348 349 353 355 356 355 355 355 357 357 362 360 364 363 363 364 365 364 364 364 363 364 365 365 366 369 369 369 369 371 369 370 371 373 370 370 363 362 367 369 370 369 368 368 370 371 371 372 372 373 373 373 373 371 367 366
338 330 325 327 332 334 339 341 340 340 337 336 335 335 336 338 336 340 336 333 336 334 332 336 338 338 341 344 347 348 350 349 349 347 345 348 348 346 345 346 346 348 347 348 352 355 355 354 355 357 358 362 360 362 362 363 363 365 361 361 362 363 364 363 366 368 368 370 368 370 369 369 369 371 368 367 368 368 368 369 370 371 372 372 371 370 372 375 375 374 374 375 375 372 366 364 363
337 331 326 331 336 332 336 340 341 341 340 337 338 337 334 337 339 337 334 332 333 336 342 337 337 340 341 343 346 348 347 348 347 348 348 346 348 347 346 346 345 346 347 349 352 352 353 354 355 357 360 360 360 362 361 362 363 361 360 360 360 361 362 363 363 366 368 370 370 370 365 365 365 368 370 370 370 370 367 366 366 370 371 369 371 371 371 356 378 369 369 374 370 367 364 359 357
340 331 334 335 337 332 337 340 342 339 337 336 336 335 336 343 339 340 337 330 333 334 342 341 342 344 344 343 345 347 345 346 348 347 348 347 348 346 347 346 348 347 347 346 349 353 353 354 355 357 359 361 361 362 360 362 365 360 360 360 360 361 362 362 363 364 364 369 370 365 364 363 366 367 370 370 368 369 364 363 363 366 366 368 366 364 359 364 365 356 362 367 365 362 359 353 353
329 332 336 335 338 336 340 340 341 340 338 337 335 340 341 337 335 340 338 334 337 342 340 342 344 344 345 346 346 345 346 345 347 348 348 348 348 347 346 345 346 344 346 346 350 351 353 354 355 356 356 360 360 360 362 361 359 360 359 361 360 360 362 362 361 362 363 370 368 367 361 362 365 363 365 367 366 367 364 361 363 370 365 361 361 361 359 358 358 360 364 359 349 345 346 357 364
333 328 334 334 343 341 341 340 341 338 338 339 344 337 339 337 332 341 337 341 340 342 344 344 346 345 346 345 346 346 346 346 348 348 348 349 348 347 348 347 346 346 346 346 347 350 354 353 354 355 354 358 360 359 360 359 360 358 358 362 362 361 360 359 358 360 366 365 369 368 369 369 364 368 362 364 365 365 364 362 364 364 359 359 361 363 353 353 362 367 358 359 346 350 342 350 357
329 327 335 338 342 338 341 340 337 340 339 340 342 336 337 339 339 339 338 339 345 340 342 344 344 344 345 344 345 346 346 348 347 348 350 349 350 350 348 348 348 345 343 347 348 350 350 354 354 354 352 355 357 357 355 357 358 360 359 359 359 362 360 360 359 361 363 365 365 369 369 365 363 365 365 361 371 364 365 363 365 362 363 360 364 357 355 356 360 353 358 356 350 348 346 357 355
330 329 334 337 334 339 335 342 338 338 343 343 338 338 340 342 342 335 340 342 349 343 341 343 342 343 344 343 345 344 345 345 347 346 347 349 349 347 346 345 346 344 346 348 349 350 351 351 353 354 353 353 355 355 357 357 358 359 360 361 361 364 365 365 364 357 362 367 363 366 364 367 367 369 363 361 362 364 364 365 363 361 361 368 362 356 355 355 355 358 360 353 339 354 354 355 355
331 332 332 333 334 338 339 338 344 341 341 343 336 336 337 343 338 327 339 345 347 343 346 343 344 341 343 343 344 345 346 345 348 347 347 347 345 345 346 345 345 345 346 346 348 349 352 351 353 354 354 360 355 352 358 358 360 358 358 357 358 360 362 368 369 364 359 359 363 371 370 370 364 363 362 362 366 361 363 364 361 363 360 357 363 358 359 355 357 361 351 354 356 365 353 358 357
331 331 335 335 333 338 335 339 343 341 339 343 340 336 339 342 339 333 338 342 343 342 345 344 345 340 341 343 344 345 345 347 347 346 344 345 344 344 344 343 342 343 344 345 347 349 350 351 351 353 353 354 360 353 359 358 360 358 360 358 355 359 366 361 363 364 366 368 363 371 370 368 368 363 362 362 359 364 362 359 358 360 359 357 362 357 359 358 361 358 355 356 361 362 354 352 360
329 329 327 332 333 330 336 334 341 340 338 342 341 336 334 337 332 338 340 345 343 345 344 342 341 344 342 343 343 344 344 346 347 345 345 347 345 346 343 346 345 342 344 347 348 349 348 348 350 351 353 354 357 355 354 355 356 356 357 357 360 356 362 366 360 358 367 361 367 368 370 368 370 362 364 365 367 362 358 358 357 358 359 365 359 357 356 366 361 358 355 354 351 355 353 350 348
329 332 328 328 327 326 332 337 339 338 340 344 341 319 322 332 337 336 340 342 343 342 340 339 342 339 341 342 342 343 344 346 346 347 347 348 346 346 345 345 348 346 347 347 347 345 346 346 347 348 349 353 354 354 356 354 356 356 356 355 361 363 362 362 362 362 360 362 365 368 367 367 366 366 365 364 364 359 360 361 357 357 368 363 360 360 357 360 357 356 353 358 358 354 348 349 348
321 329 325 320 316 319 329 335 336 331 341 343 339 320 319 330 335 340 340 342 341 337 339 341 339 343 344 340 342 342 343 345 345 346 347 347 348 348 346 347 348 348 350 348 344 345 347 345 344 345 348 351 354 355 355 356 355 352 354 356 356 362 362 361 359 357 358 360 363 366 366 366 366 366 367 367 360 361 355 355 357 356 360 365 364 367 362 360 360 360 361 355 351 354 348 349 345
323 318 316 320 315 319 328 332 331 329 338 341 333 321 321 327 332 339 339 343 342 337 337 339 340 337 343 340 340 341 342 344 347 347 347 349 349 349 348 348 348 348 348 347 345 347 347 347 348 347 348 351 354 357 356 358 353 355 359 360 358 364 361 360 358 355 354 358 361 362 365 366 365 367 367 367 361 359 355 354 355 363 361 365 362 364 366 361 358 354 357 353 351 345 348 340 349
321 319 317 315 316 317 323 330 332 334 336 337 332 319 322 325 332 336 338 339 337 336 337 336 339 342 342 342 340 340 341 343 344 345 347 348 348 347 349 350 349 349 349 349 348 349 349 350 349 348 348 350 353 353 357 360 360 358 360 358 358 362 359 357 357 356 354 357 357 357 362 364 365 367 368 368 364 359 357 355 353 353 360 360 359 360 362 361 357 351 356 354 354 353 347 346 347
314 324 319 317 313 314 312 327 330 332 332 328 332 323 323 325 332 334 335 336 336 334 336 338 338 342 341 343 340 340 340 341 342 344 346 347 348 349 348 352 350 350 349 349 348 349 348 349 349 349 350 351 355 356 359 358 360 363 361 359 364 359 357 356 357 356 354 353 356 360 363 364 366 366 368 367 368 359 357 355 354 356 361 363 366 359 359 357 360 353 353 362 364 359 352 346 341
311 314 314 314 314 314 313 316 324 327 331 325 328 326 323 326 328 332 335 335 335 335 334 339 337 339 341 340 345 341 340 341 342 345 346 348 348 349 349 350 349 350 350 350 350 350 350 350 351 355 351 355 356 358 363 361 360 362 358 357 358 359 359 357 354 353 353 354 352 362 367 363 366 367 367 369 367 361 357 357 359 362 363 365 365 359 358 360 359 353 352 355 362 364 359 353 347
313 313 311 311 309 311 311 317 324 322 319 318 324 321 321 324 327 331 332 333 333 334 335 338 340 339 341 341 343 341 339 340 343 345 347 348 348 349 349 350 350 350 350 350 351 351 352 352 352 355 356 353 356 358 361 359 358 357 354 355 356 358 357 356 354 353 353 353 353 361 366 364 366 367 367 367 367 363 358 357 358 356 361 359 358 354 355 358 357 356 354 347 355 360 357 353 349
314 312 310 310 310 312 316 317 323 325 320 317 318 317 321 324 327 327 329 331 332 334 333 334 340 337 340 341 340 339 344 340 343 345 347 347 348 349 350 350 351 350 349 350 350 351 351 350 354 352 354 354 359 358 358 356 354 356 356 354 352 353 354 354 353 353 353 354 357 357 364 360 364 365 366 365 365 365 362 362 362 362 359 361 361 358 354 355 362 362 361 369 350 355 353 349 342
313 309 308 308 310 310 315 316 321 327 319 316 318 317 318 320 323 326 328 329 329 330 331 332 335 339 338 338 340 340 340 347 346 345 345 347 347 348 349 349 351 347 349 349 349 349 350 349 353 351 354 356 358 359 358 358 359 356 354 354 352 351 353 353 353 353 351 353 365 368 363 364 365 365 367 366 366 363 362 360 361 362 361 364 364 364 361 366 364 360 356 358 360 349 350 347 342
312 309 309 308 310 313 315 317 318 323 320 315 317 315 316 319 321 326 327 328 330 330 332 332 335 338 340 339 339 341 340 341 343 344 344 345 346 348 348 349 348 350 348 348 350 350 350 351 354 354 353 354 357 357 360 359 359 360 356 355 352 349 353 355 354 352 352 352 355 359 364 364 365 362 364 366 363 361 361 362 360 360 361 362 366 364 363 362 362 357 360 354 351 352 348 346 346
309 308 307 306 311 309 307 316 318 322 318 315 315 313 316 322 324 326 328 329 332 331 331 333 334 336 339 337 340 340 340 341 340 343 342 344 345 347 347 348 347 349 349 348 349 349 350 354 357 357 356 355 357 359 361 359 359 362 363 360 356 354 353 357 356 355 354 352 352 356 363 367 364 360 360 361 362 361 363 362 358 359 365 366 367 365 364 357 360 359 353 352 353 347 346 341 344
310 310 310 309 309 309 308 310 317 319 317 320 316 315 313 318 316 326 328 332 331 333 331 332 334 337 342 344 343 342 342 340 341 344 346 348 344 345 346 347 348 347 349 349 349 350 350 349 356 360 358 356 359 360 361 362 362 362 362 363 365 361 363 355 352 351 352 357 353 355 356 361 362 358 359 360 360 363 364 364 362 360 360 364 360 360 360 355 355 356 356 357 356 348 344 345 347
309 311 310 310 311 311 311 312 311 309 308 317 315 305 306 315 315 322 330 330 327 331 329 329 332 334 338 341 341 341 343 343 345 344 345 343 346 344 345 347 348 347 349 350 351 351 352 351 353 360 360 358 355 359 362 362 360 358 359 356 354 354 353 353 349 349 350 351 350 354 358 359 359 359 359 360 358 360 363 365 365 361 358 363 361 356 356 356 356 354 355 356 351 354 350 351 342
306 307 313 312 312 311 311 310 309 304 303 311 312 303 301 312 312 324 326 327 326 329 328 328 331 334 334 336 341 340 341 343 346 344 345 343 344 346 349 347 347 346 348 351 350 351 352 352 353 356 360 360 356 362 365 365 362 359 357 351 351 352 352 351 359 354 352 352 354 353 356 360 360 359 357 360 360 363 366 366 367 364 360 360 362 361 360 356 355 354 361 361 355 357 361 353 348
306 313 313 312 311 309 309 310 308 306 312 312 311 309 304 303 311 321 322 325 324 326 328 329 329 332 332 335 336 338 341 342 345 345 344 342 344 343 345 347 347 347 348 350 350 351 352 356 354 358 361 362 358 362 364 366 363 362 359 356 353 353 351 354 355 356 353 357 354 355 354 357 360 361 359 362 362 362 365 366 367 366 362 358 359 357 355 356 356 356 365 363 361 367 366 361 353
309 312 313 310 311 310 310 309 307 308 307 304 308 312 305 305 311 320 321 319 320 321 324 328 330 331 331 334 335 337 338 340 341 343 344 347 344 345 345 347 347 349 348 348 350 351 351 352 357 358 360 364 361 364 364 365 365 364 362 355 357 356 355 353 358 359 358 358 355 356 357 356 359 362 361 359 362 362 365 364 366 365 363 361 361 357 358 357 356 359 369 368 366 365 360 360 363
312 313 313 312 312 311 311 308 307 308 305 301 306 309 303 303 311 312 317 314 314 317 325 328 331 330 331 332 334 335 337 338 341 342 346 348 349 347 348 348 348 349 352 354 356 355 352 352 355 358 360 361 361 364 364 364 364 365 362 361 359 359 357 358 357 357 359 365 357 360 362 370 358 359 360 363 364 364 363 365 361 360 361 359 359 357 358 359 359 362 362 358 365 363 368 357 355
315 313 311 310 310 309 310 310 309 307 301 304 308 310 307 300 308 310 311 314 316 317 328 329 329 329 331 333 334 335 335 336 339 343 346 349 349 349 348 346 348 352 353 352 350 350 350 352 353 357 361 360 361 362 364 364 363 362 362 363 362 360 359 357 355 358 359 362 358 352 357 363 359 357 358 361 361 361 361 364 359 358 359 362 360 357 358 354 355 355 354 359 363 363 363 360 356
314 311 309 309 308 310 308 309 312 301 299 306 311 311 310 300 305 313 317 318 318 319 319 322 325 325 329 333 333 335 335 334 337 341 346 348 348 347 347 346 347 348 350 349 349 350 353 354 355 358 361 363 362 360 363 363 362 362 363 364 364 363 360 352 355 355 354 356 352 353 357 357 359 358 362 360 358 359 361 361 362 359 359 358 357 357 356 355 355 356 358 365 362 363 363 362 356
312 310 309 303 302 304 299 304 299 300 300 306 310 310 306 305 309 312 316 317 319 320 321 325 326 326 331 333 333 334 334 335 337 342 345 346 344 344 344 345 345 346 346 349 350 351 353 354 356 357 361 363 364 361 363 364 363 362 362 363 365 364 362 361 359 357 356 355 352 352 359 359 360 358 358 358 358 358 360 361 359 358 360 359 362 364 360 363 363 357 359 354 356 361 361 359 359
310 308 306 302 298 297 295 299 302 301 305 310 308 310 303 308 310 316 315 317 320 321 326 326 327 328 330 332 334 335 336 335 336 337 344 344 345 344 345 345 344 344 345 348 347 350 351 352 358 359 360 364 365 364 362 363 363 363 364 363 362 364 363 359 358 354 355 357 357 355 349 350 355 354 355 358 358 358 358 359 360 360 364 367 366 369 368 368 367 359 360 361 355 367 361 362 362
309 311 308 305 302 299 295 297 295 297 301 304 310 304 303 302 320 319 319 319 321 325 326 330 331 331 331 331 332 334 333 334 336 337 337 341 344 347 346 347 344 345 344 345 348 354 350 351 359 361 362 363 364 364 364 363 362 362 364 361 362 361 360 360 361 359 358 355 354 352 353 350 350 354 354 357 361 359 358 360 360 359 360 367 371 365 355 361 368 370 368 365 364 357 361 357 353
310 311 312 306 305 309 300 303 302 301 300 301 305 304 309 309 317 318 321 322 321 323 327 331 331 332 332 331 332 331 332 335 337 337 338 341 346 348 348 350 344 344 348 347 347 354 353 355 361 360 363 363 363 364 364 362 362 361 363 364 362 363 365 361 364 366 364 357 353 352 354 359 353 354 355 358 354 358 358 357 360 358 364 363 364 366 363 359 363 358 363 361 358 352 352 357 356
309 309 304 308 314 310 305 305 307 306 303 300 307 305 308 314 314 316 317 318 320 325 326 326 330 331 333 334 335 334 334 333 335 336 337 341 344 346 348 348 346 345 346 347 351 352 357 358 357 360 364 364 363 365 362 363 363 362 361 360 360 360 359 358 357 358 357 357 359 355 351 350 352 360 353 356 356 361 358 359 357 356 363 364 363 364 359 362 369 363 356 362 358 354 371 363 360
310 304 308 314 315 312 307 299 303 300 297 301 306 303 303 304 301 317 318 319 322 324 325 327 329 331 331 332 335 338 339 336 338 338 341 341 342 344 347 347 346 346 345 345 354 354 357 360 359 360 364 364 365 365 364 361 361 358 359 358 359 359 357 356 357 356 356 356 356 358 354 353 350 350 352 353 355 356 360 363 358 358 358 359 360 359 360 361 367 369 361 372 364 366 367 366 363
311 309 316 306 302 302 308 304 296 297 297 299 303 305 305 309 308 315 316 317 319 322 327 329 328 328 330 334 336 338 340 342 342 337 339 341 342 344 345 346 347 348 348 348 354 356 356 358 360 361 360 366 366 366 365 364 364 360 358 359 355 358 358 358 360 359 358 355 354 353 352 354 351 354 356 362 362 355 358 358 363 358 359 360 362 360 367 369 369 370 366 363 365 369 367 363 362
316 317 311 314 310 306 303 305 304 303 297 298 300 304 302 312 314 318 318 320 321 323 323 326 328 329 331 334 336 337 339 341 340 338 337 337 341 344 343 346 346 347 347 350 356 357 354 358 359 359 361 368 366 368 368 366 366 363 356 359 359 361 358 359 357 356 354 354 354 353 352 350 351 351 353 355 352 353 354 356 355 354 353 355 356 359 363 365 368 368 365 357 359 365 361 361 357
308 308 309 310 309 313 310 308 305 302 299 299 298 298 305 314 319 319 319 321 322 322 323 326 329 329 333 334 334 335 338 341 341 341 338 336 337 341 341 344 348 349 351 354 353 354 355 357 357 359 360 352 353 356 351 350 352 352 354 356 358 359 355 360 358 357 354 354 354 354 352 352 354 352 355 352 352 355 358 356 357 359 355 373 366 368 361 370 369 368 366 366 364 364 363 359 362
308 307 306 307 305 303 299 299 307 305 302 297 299 298 309 315 322 321 321 323 324 324 325 325 329 331 334 335 335 336 337 340 343 343 338 339 342 342 345 347 348 350 351 352 352 358 356 357 357 363 354 354 353 355 355 353 353 354 356 355 355 357 356 358 356 354 353 354 353 353 356 358 354 359 358 354 356 351 352 354 352 359 359 363 372 371 368 365 364 367 362 359 360 364 363 361 362
Wind_Speed
7 6 4 2 2 1 1 1 2 2 1 3 4 3 6 6 6 9 12 10 11 2 13 18 15 7 5 7 9 9 10 4 5 2 5 7 14 15 14 18 19 18 16 13 12 11 13 13 14 14 15 16 16 16 16 15 15 14 14 13 13 14 13 14 13 13 13 12 13 13 13 13 12 12 11 11 11 10 10 10 9 9 10 10 10 10 9 9 8 7 8 7 7 6 4 3 6
6 2 5 2 1 2 2 2 3 2 2 5 2 5 7 4 5 8 10 7 11 13 13 17 15 15 16 13 12 13 12 10 9 11 10 14 17 14 17 20 20 19 15 13 12 12 13 13 14 13 15 15 15 15 15 15 15 14 13 13 13 12 13 13 13 13 13 12 12 13 13 12 12 11 11 11 10 10 9 9 9 9 10 9 9 9 8 7 8 7 7 7 7 7 6 7 6
5 7 2 4 4 2 2 2 3 3 4 3 4 5 6 4 8 4 9 10 15 20 17 16 15 13 14 10 8 8 7 10 14 14 13 17 17 13 19 20 19 18 17 13 12 13 11 13 14 14 14 15 15 15 15 15 15 14 13 13 13 12 13 14 13 13 13 12 12 12 12 12 12 11 10 11 10 10 9 9 9 9 9 9 9 8 8 7 7 7 6 7 6 6 7 6 7
5 7 4 2 3 3 2 2 2 2 2 1 5 6 4 7 10 12 9 14 16 15 13 13 11 7 12 12 11 13 9 6 11 16 13 13 10 17 18 20 19 16 15 12 13 12 11 13 14 15 13 15 15 15 15 15 14 14 13 13 12 12 12 13 13 12 12 12 12 12 12 12 11 11 10 10 10 9 9 9 9 9 9 8 8 8 7 7 7 6 7 6 7 7 7 7 7
5 7 7 4 2 1 1 1 3 2 3 1 3 8 5 9 10 12 13 13 14 14 13 12 10 10 11 11 5 5 7 12 11 12 12 12 17 17 18 20 17 16 15 14 13 12 13 18 15 16 13 13 15 15 14 14 14 14 13 13 12 12 12 12 12 12 12 11 11 11 11 11 10 10 10 9 9 9 9 9 9 8 9 9 8 8 7 7 7 6 7 7 7 7 7 7 7
5 5 4 4 3 0 3 4 2 4 4 3 4 9 9 8 11 12 13 12 15 10 13 12 11 10 8 9 6 8 10 8 11 11 14 14 20 20 20 18 17 16 16 14 13 12 13 18 16 16 15 13 14 14 15 14 14 13 13 12 12 12 11 11 11 12 11 11 10 11 11 10 10 10 9 9 10 10 10 9 8 8 8 7 7 7 7 7 7 7 6 7 7 7 7 8 7
4 3 2 3 4 3 1 5 5 3 4 7 7 8 8 9 11 12 13 13 15 11 11 14 16 15 11 7 11 6 7 13 12 13 12 18 20 19 19 16 16 17 16 13 13 13 16 19 16 16 16 14 14 14 14 14 14 13 12 12 12 12 11 11 12 11 10 10 10 10 10 9 9 8 8 9 9 9 9 9 9 8 7 7 7 7 6 6 6 6 7 7 7 7 8 8 8
3 2 3 5 2 1 3 7 6 2 2 5 8 9 8 9 9 9 10 11 10 10 12 12 10 13 10 4 7 7 8 8 15 17 18 17 19 19 17 15 16 17 16 14 14 14 17 19 17 17 16 16 14 14 13 13 13 13 12 12 12 11 11 11 11 11 10 10 10 9 9 8 8 8 9 8 8 7 7 7 7 7 6 6 6 6 6 6 6 6 7 7 7 8 8 8 9
3 4 1 5 5 2 3 5 4 4 8 6 8 7 7 7 6 8 9 11 14 12 12 14 11 11 9 11 7 8 9 12 16 21 20 19 20 19 14 16 16 15 15 15 14 15 14 18 19 18 17 16 15 14 13 13 13 13 12 11 11 11 11 10 10 10 9 9 8 8 8 7 7 7 8 8 7 6 6 6 6 6 6 5 5 5 5 6 6 6 6 7 7 8 9 9 9
1 3 2 2 3 5 4 3 5 5 4 6 7 8 7 6 7 7 8 10 12 13 9 8 10 14 13 12 9 7 9 13 16 18 19 19 19 16 17 17 16 17 15 16 15 14 13 17 19 18 17 16 15 14 13 13 12 12 12 11 11 11 10 10 10 9 9 8 7 7 7 6 6 6 6 7 6 6 5 5 5 5 5 5 5 5 5 5 5 6 7 7 7 8 9 9 10
1 1 2 3 5 4 4 5 8 5 6 6 7 6 4 4 5 7 6 9 18 12 13 13 15 15 11 8 6 9 13 15 18 19 19 19 17 16 16 17 16 15 16 16 15 14 14 14 18 17 16 16 15 14 13 13 12 12 12 11 11 10 10 10 10 8 8 7 6 5 5 5 5 5 5 5 5 4 4 4 4 4 5 5 5 5 4 5 5 6 7 7 8 9 10 10 10
1 3 2 3 2 2 3 1 4 7 3 10 6 2 1 5 3 5 10 10 19 12 12 10 8 15 12 10 7 10 14 15 16 18 18 19 18 18 15 13 15 15 16 16 15 14 14 13 11 14 16 15 14 13 13 13 12 12 11 11 11 10 10 10 9 8 7 6 5 4 4 4 4 4 3 3 3 3 3 4 4 4 4 5 4 5 6 6 6 6 7 8 9 9 10 10 10
1 4 2 1 1 1 2 3 2 6 3 4 3 4 1 2 4 10 5 9 12 13 8 11 17 9 9 9 9 12 13 13 15 16 18 16 13 13 15 16 16 15 15 16 16 15 15 13 12 11 12 16 14 13 13 13 12 12 12 11 10 9 10 9 9 8 7 5 5 4 3 2 2 2 1 0 1 1 1 2 3 4 4 5 5 6 6 7 7 7 7 8 9 10 10 10 10
1 0 3 0 3 2 2 4 3 4 1 2 2 2 9 6 3 7 4 13 10 9 10 15 12 13 13 10 10 10 11 14 15 17 14 16 14 13 12 11 19 16 15 15 15 16 14 13 12 11 12 11 10 12 13 13 13 13 12 11 10 10 9 9 8 7 6 6 5 4 2 2 2 2 3 2 2 2 1 1 2 3 4 5 6 6 7 7 7 8 8 9 9 10 11 11 11
4 4 1 1 1 2 2 4 2 1 2 2 4 4 1 4 3 9 7 8 11 11 12 12 11 10 7 11 8 11 13 14 17 16 16 16 16 12 13 11 16 15 14 14 15 15 14 13 13 12 11 10 11 8 8 10 13 12 12 11 11 10 9 8 8 6 6 6 5 5 5 5 5 5 5 5 5 4 3 3 4 2 4 5 6 6 7 8 9 9 10 10 11 11 12 11 11
8 7 2 3 3 3 2 5 3 4 1 2 4 5 3 2 5 8 4 4 11 14 11 6 12 1 14 9 12 14 17 17 17 17 16 19 17 14 14 10 11 15 13 14 15 14 14 14 12 11 10 11 10 9 9 9 11 12 11 11 10 10 9 8 7 6 6 6 6 6 5 5 7 6 9 7 7 8 7 3 1 3 5 6 7 7 8 9 10 11 11 11 11 12 12 11 12
3 1 3 4 3 5 3 1 3 2 3 1 1 3 3 4 7 3 7 7 10 9 7 6 7 8 12 11 16 17 18 17 17 18 17 14 9 10 9 14 9 10 10 12 12 12 13 14 14 10 10 13 11 10 8 9 10 13 11 11 10 9 8 8 7 7 6 6 5 6 6 5 5 4 7 7 9 7 9 6 3 5 7 7 8 8 10 11 11 12 11 11 12 13 12 11 13
3 2 1 2 2 4 1 3 2 4 2 0 1 0 4 4 3 8 5 9 6 9 9 9 7 7 11 14 18 18 18 19 18 19 16 14 13 10 10 9 10 12 11 10 12 13 13 11 13 13 10 12 11 10 7 7 8 10 9 8 7 7 8 7 6 5 6 5 8 5 3 5 3 2 2 3 2 2 3 5 5 8 8 9 9 9 11 12 13 13 12 12 13 13 12 6 7
3 1 2 1 1 1 2 3 4 4 2 3 3 3 5 5 9 5 9 2 5 5 4 9 10 8 14 20 19 20 20 19 19 19 17 16 13 17 13 11 12 12 13 11 10 15 11 12 12 11 12 10 13 11 8 8 9 7 8 8 6 8 7 6 5 5 5 5 4 4 4 4 3 3 2 3 3 5 6 6 8 10 10 10 10 12 12 13 14 14 14 13 14 13 7 5 6
3 1 3 1 2 3 3 4 2 1 5 4 8 6 4 3 9 5 5 4 5 8 9 8 9 11 15 19 20 21 21 19 20 20 19 17 17 16 15 14 12 13 13 13 12 11 12 10 12 11 11 11 9 9 8 8 8 7 7 7 6 6 6 5 6 6 5 5 4 4 3 4 3 2 5 5 5 3 5 9 13 12 11 12 12 9 12 14 16 15 14 14 11 7 4 5 5
1 5 1 1 4 3 4 2 2 3 1 3 7 13 5 12 5 7 8 4 3 5 5 6 11 13 16 18 20 19 20 20 20 18 19 18 17 16 14 15 13 13 13 12 10 11 13 14 11 11 10 11 10 8 8 9 8 7 6 7 7 7 6 6 5 5 5 4 4 4 5 5 3 3 2 2 2 3 3 3 3 5 5 3 8 6 7 6 6 6 7 8 6 7 7 5 5
7 5 4 5 3 3 3 3 1 3 6 5 6 4 5 7 9 13 7 3 4 4 8 12 11 12 11 18 19 19 20 21 20 20 19 20 18 17 14 15 15 14 12 12 14 13 14 12 13 11 11 10 10 8 8 8 9 6 5 5 5 6 6 6 5 5 5 5 4 4 5 3 2 2 2 1 3 3 4 3 3 3 3 2 3 3 4 3 3 3 3 7 7 8 10 7 3
3 3 9 5 2 2 2 3 3 1 3 0 2 2 5 6 1 2 4 6 1 1 5 10 11 12 14 14 18 18 20 22 21 19 19 18 15 16 17 15 15 14 12 12 13 12 13 14 14 13 11 10 11 9 7 7 7 6 6 5 5 5 5 6 6 5 5 5 4 3 3 2 1 2 1 2 3 3 3 4 3 2 2 4 4 3 3 4 3 3 2 1 4 4 4 5 3
3 5 4 5 6 3 5 2 3 4 3 2 3 2 5 4 0 4 5 5 3 2 4 6 8 14 11 16 17 19 21 21 21 19 19 18 19 17 16 16 15 13 11 13 13 13 12 15 13 14 12 11 9 10 9 7 6 6 7 6 5 6 6 5 4 4 4 5 4 3 3 1 1 1 2 3 3 2 3 4 3 3 3 3 3 2 4 5 3 2 4 2 4 4 5 5 1
5 0 5 7 2 1 3 3 3 3 2 1 4 1 0 2 4 4 5 3 3 0 3 6 5 10 14 15 18 18 19 19 19 18 16 14 16 17 16 13 14 15 15 14 13 13 15 13 14 15 14 13 11 10 10 7 6 5 6 6 6 6 4 5 4 4 3 3 4 3 3 2 2 2 2 3 0 2 3 4 3 3 3 3 3 3 4 4 2 3 3 3 4 5 4 2 2
9 3 4 5 3 4 4 3 2 2 2 2 3 2 2 1 7 6 6 5 0 4 7 3 7 11 14 14 17 18 18 20 21 20 20 15 16 19 19 15 15 15 15 15 13 12 13 15 15 15 14 13 12 11 7 7 6 6 5 6 6 5 3 2 5 4 5 2 4 4 5 3 2 2 2 5 3 3 3 3 3 4 3 2 2 4 4 3 3 3 3 3 6 2 2 2 1
2 9 8 5 5 3 3 5 1 3 3 3 3 4 2 1 6 2 6 5 4 3 5 10 10 13 12 12 15 17 20 21 19 17 17 16 16 17 16 17 17 16 15 16 14 12 12 14 15 14 13 10 11 11 7 7 7 6 6 5 6 5 4 2 2 2 3 4 2 5 4 4 4 3 4 4 2 3 3 3 4 3 3 3 2 3 3 4 3 2 5 4 5 2 4 2 1
4 6 5 3 3 5 4 4 5 3 2 4 4 5 3 3 3 4 4 10 8 6 5 2 10 12 12 14 15 15 17 17 17 18 20 20 16 14 17 15 19 17 17 15 13 12 14 16 16 15 14 13 9 11 7 8 7 8 6 4 5 5 5 4 2 2 2 3 4 5 4 4 4 4 3 3 4 3 3 3 3 3 3 3 3 4 4 4 3 4 6 5 4 3 4 4 1
5 3 3 3 2 1 4 2 5 3 4 4 2 6 8 7 6 6 7 3 4 6 7 8 6 12 12 12 14 14 15 17 18 17 18 15 16 16 18 14 11 16 12 15 14 14 16 16 15 15 14 13 11 11 10 8 8 8 6 5 4 6 5 3 4 4 2 3 5 5 5 4 4 4 4 4 2 3 4 4 3 3 3 2 4 5 5 4 3 3 5 6 4 3 3 6 6
4 7 6 5 3 3 4 3 6 5 2 4 4 3 1 6 10 7 6 5 4 2 2 1 1 10 10 13 12 13 15 16 16 15 16 16 16 17 16 17 13 12 12 12 16 16 14 12 12 13 13 15 13 10 9 8 8 6 6 5 4 4 4 4 4 3 3 4 4 6 5 5 4 4 4 4 3 4 3 3 4 4 3 3 4 3 3 3 3 5 5 3 3 3 3 4 4
5 7 6 4 7 5 8 5 5 3 5 4 5 4 1 3 5 6 6 7 6 5 4 2 3 6 17 7 11 12 15 17 18 18 19 20 18 17 19 18 16 14 10 12 15 16 15 13 11 11 13 14 13 10 12 8 7 8 6 6 6 5 5 6 6 5 5 5 5 4 5 5 6 5 4 3 4 3 5 4 3 4 3 3 2 1 3 4 3 3 3 3 5 3 3 4 5
6 2 2 3 9 5 5 4 6 4 5 7 5 4 0 1 3 7 7 7 6 6 4 2 2 2 14 11 12 12 13 16 18 18 20 19 17 13 18 20 17 16 17 15 16 14 15 15 13 13 15 15 14 10 9 8 8 8 6 6 6 6 5 5 6 7 6 6 5 6 7 6 6 5 4 4 5 4 5 4 3 2 4 3 3 3 3 3 3 5 4 5 4 5 3 5 3
3 2 3 5 6 2 5 4 7 9 7 8 8 4 5 5 7 7 9 9 9 8 6 2 2 4 11 10 10 11 13 15 15 18 18 16 16 16 14 16 18 20 18 17 14 16 14 13 14 14 16 15 14 14 9 8 7 8 8 9 9 8 7 6 6 7 7 6 5 5 7 7 6 5 5 4 5 5 3 4 5 6 6 4 3 3 3 3 4 6 5 5 4 4 6 10 3
2 6 5 3 7 5 2 8 8 8 8 8 10 6 5 6 8 6 9 10 10 10 9 9 5 5 5 12 11 9 12 13 15 15 17 17 15 17 17 16 16 16 15 17 19 16 15 14 13 14 14 14 12 11 9 9 9 7 7 7 6 8 9 8 6 6 6 7 8 4 7 6 6 6 5 5 4 6 4 4 4 4 2 2 2 3 4 4 3 4 4 2 2 3 3 6 7
6 4 5 6 7 11 3 6 9 7 11 9 9 11 7 7 4 9 10 10 11 11 9 9 9 5 3 9 12 10 10 13 13 14 16 17 17 16 15 16 16 15 13 16 16 17 17 14 13 10 13 12 12 9 8 9 9 7 8 8 8 6 6 7 8 7 6 5 7 9 8 8 6 5 6 5 5 4 5 4 3 4 3 3 2 3 4 3 3 5 5 4 3 2 3 4 6
8 8 8 10 9 7 8 6 5 5 3 8 9 9 9 7 6 10 9 11 12 11 10 8 11 8 4 6 3 12 10 12 13 14 16 16 14 15 13 13 14 14 13 13 14 14 11 10 13 9 9 13 11 9 8 8 8 7 8 8 7 6 7 6 7 7 7 6 7 10 8 7 6 6 6 5 5 5 5 4 4 4 3 3 3 5 4 3 4 4 5 7 5 3 4 4 5
10 10 10 10 11 10 5 1 5 6 3 7 11 9 8 10 13 8 9 9 10 11 10 9 10 10 7 8 5 5 16 8 11 12 14 16 16 15 13 13 13 15 15 15 14 14 13 10 11 12 11 9 9 9 8 9 9 7 8 9 10 9 8 8 8 7 7 7 5 6 9 7 7 7 6 6 5 5 4 4 4 3 3 3 3 3 5 6 3 3 6 2 5 4 3 3 7
11 11 10 10 10 9 10 7 8 3 4 6 10 12 9 8 6 10 7 11 11 11 10 10 10 12 8 7 6 6 7 13 10 12 14 15 14 15 14 12 13 16 14 15 16 16 16 16 13 12 11 10 12 11 10 10 8 8 8 9 9 9 8 7 7 7 8 7 5 6 8 6 6 6 6 6 5 6 5 5 4 4 4 3 3 3 5 3 4 4 4 4 3 5 3 7 7
11 10 9 9 9 8 12 8 8 7 3 6 8 9 8 10 15 5 10 9 7 7 8 8 9 10 8 6 7 5 5 6 9 9 13 14 15 16 14 12 13 14 16 15 15 15 14 14 13 11 11 11 10 12 9 8 8 8 9 8 9 8 9 8 8 8 8 8 8 7 8 7 6 6 6 6 6 7 6 5 5 5 4 3 3 3 4 5 4 6 5 4 6 4 4 6 6
9 8 8 7 7 11 5 5 6 6 6 4 3 7 5 5 11 9 7 9 7 6 7 7 8 10 11 11 8 5 8 7 6 9 12 11 13 14 13 13 14 13 13 14 14 15 13 10 10 12 10 11 10 10 9 10 9 7 6 7 8 7 5 6 8 7 7 8 8 9 4 5 8 8 9 9 7 6 6 5 6 4 3 3 3 3 3 5 4 5 6 5 5 5 5 5 6
9 10 10 9 9 13 10 9 4 2 10 7 9 6 5 3 3 10 5 6 1 3 6 7 7 10 11 9 7 6 5 3 8 7 5 8 13 14 15 13 13 14 14 14 14 14 12 15 10 11 10 10 11 10 10 8 7 7 7 6 4 6 3 7 6 7 7 5 6 8 10 7 6 7 8 9 8 6 6 5 5 4 4 5 4 4 5 7 7 5 5 4 4 5 6 5 4
9 8 9 10 12 13 10 15 4 2 7 3 8 6 6 4 2 10 5 7 8 8 8 7 8 9 14 13 10 9 9 11 8 8 8 7 13 11 15 14 13 14 14 14 14 14 13 14 13 11 9 9 10 13 11 9 8 8 7 7 7 6 6 5 8 8 8 8 8 7 10 10 9 8 6 7 8 7 6 5 5 5 5 5 5 6 5 5 5 6 6 4 6 6 5 3 6
7 7 11 14 13 17 15 15 8 8 9 5 6 9 7 3 4 15 13 12 7 5 8 8 10 8 9 11 11 11 10 9 10 9 7 6 7 12 10 14 13 14 14 13 14 14 15 14 13 14 10 8 10 9 11 8 8 7 8 10 8 7 6 6 4 6 6 7 7 8 6 9 9 9 8 6 6 6 5 6 5 5 5 5 5 5 5 7 7 5 3 2 4 5 4 3 4
6 8 12 14 13 11 13 13 11 10 10 13 12 8 9 8 4 11 10 12 12 13 12 9 7 11 12 11 11 11 11 11 10 9 8 8 6 10 12 11 14 14 14 15 14 14 15 11 13 12 9 8 9 8 11 9 7 7 8 8 9 8 9 6 6 5 6 4 6 6 6 9 9 8 6 5 6 7 6 5 5 5 6 7 5 6 6 5 5 4 2 3 4 4 2 3 3
10 13 13 13 13 13 14 11 10 9 8 9 5 9 7 7 2 1 7 10 11 12 11 8 7 7 9 9 9 10 11 11 11 9 11 10 11 10 11 10 15 16 11 13 13 13 14 13 12 12 10 9 8 9 10 10 8 8 7 9 7 7 7 7 4 4 4 4 4 5 5 8 8 8 6 7 6 6 6 5 6 6 6 6 5 6 4 5 5 5 3 2 4 4 3 2 2
10 12 13 12 12 11 11 10 10 10 10 11 11 9 8 8 4 5 6 9 5 7 12 5 8 6 7 9 10 10 12 11 11 11 11 13 11 11 11 13 13 9 4 7 8 6 6 13 12 12 11 10 9 8 10 11 10 8 8 8 8 6 6 5 5 5 5 3 4 4 4 3 8 7 6 5 6 6 7 7 7 9 8 8 7 6 6 5 6 5 5 6 3 3 2 3 4
9 11 11 12 12 10 8 7 7 8 8 8 10 11 8 9 6 5 5 3 4 3 11 9 8 8 10 10 10 11 8 7 10 12 11 10 10 9 9 11 7 2 3 8 11 7 4 9 12 13 12 10 10 10 11 12 11 9 9 9 8 8 7 7 6 6 6 3 4 7 5 6 5 7 7 6 7 8 8 7 8 8 8 7 6 6 6 7 8 7 8 6 5 4 2 4 5
10 6 5 5 8 6 8 7 0 7 8 10 10 9 6 10 4 4 2 3 6 4 8 10 13 9 8 8 10 10 11 11 12 13 12 11 9 9 9 11 11 9 8 6 5 8 9 10 13 13 12 11 10 11 11 12 11 10 10 9 9 8 8 8 7 6 7 6 6 6 6 6 6 6 5 5 7 9 7 7 8 8 7 7 7 6 6 6 6 4 3 1 3 4 5 4 4
9 8 9 10 8 5 4 4 8 5 8 11 14 12 7 7 6 7 10 7 5 4 4 16 13 10 6 10 8 7 8 10 10 12 11 11 12 12 14 13 10 13 10 12 14 9 9 7 11 15 12 12 10 11 11 12 10 10 10 10 9 7 7 6 6 6 7 7 7 7 5 6 6 7 8 8 9 10 7 7 8 7 5 6 5 4 6 5 3 3 3 6 6 5 5 5 4
12 9 8 10 9 11 10 8 7 7 9 10 8 10 10 5 8 3 10 5 9 4 12 9 10 6 9 8 9 9 11 11 13 14 14 12 11 13 14 13 12 10 13 15 16 10 8 7 8 14 14 12 11 10 11 11 11 10 9 9 9 7 6 7 6 8 9 6 7 6 9 9 7 8 8 8 8 9 7 9 8 7 5 4 5 3 3 3 3 4 3 3 5 2 4 5 5
10 12 10 9 10 8 10 7 9 11 7 7 9 9 5 5 6 5 7 7 11 14 10 10 9 7 4 3 5 11 12 13 14 13 12 13 13 13 12 12 13 13 14 12 11 11 12 11 9 12 12 13 12 11 10 11 10 11 9 10 9 8 9 8 7 7 7 8 9 10 6 8 9 8 7 7 9 8 10 8 8 7 6 4 4 4 6 3 3 2 2 4 3 4 3 4 4
9 7 7 8 6 6 8 9 11 11 12 11 4 6 6 5 1 6 4 6 4 10 14 12 8 7 6 4 6 9 10 13 14 13 14 14 14 13 11 7 11 12 12 11 13 11 10 9 7 9 13 13 13 12 9 11 10 10 9 8 9 8 6 8 6 6 5 7 9 8 7 5 6 6 6 6 9 9 7 7 8 8 5 7 5 3 4 4 5 4 3 3 4 6 5 4 4
7 11 8 10 11 8 8 8 12 12 8 9 7 6 6 4 9 9 9 5 9 13 13 8 8 7 7 7 10 5 4 9 11 13 13 11 13 13 12 11 12 12 10 10 9 9 9 9 8 7 11 12 13 11 11 10 9 9 10 10 10 10 10 11 9 10 10 8 5 7 7 9 6 4 7 6 6 5 6 10 8 9 5 4 5 5 6 5 3 4 6 5 4 5 1 4 3
8 6 7 12 12 8 6 9 8 8 10 8 7 5 6 8 2 13 22 18 17 15 12 11 10 10 9 6 6 8 9 9 6 13 10 13 12 12 13 14 15 14 13 12 9 12 8 8 8 7 7 11 11 12 11 11 11 11 10 12 11 10 11 11 10 10 11 8 7 5 6 6 7 8 6 6 6 8 5 5 6 8 9 7 7 7 6 5 4 2 3 1 3 2 2 3 3
10 7 6 8 5 7 4 5 8 8 8 7 9 8 6 11 9 13 14 13 11 9 8 9 10 11 12 12 14 15 12 8 7 6 6 8 11 12 13 16 18 14 12 12 10 12 9 7 8 8 8 9 11 10 10 9 9 8 8 9 11 10 10 10 7 8 8 8 7 8 8 5 8 6 5 4 3 5 5 5 4 4 4 6 4 5 4 3 3 2 3 3 2 2 2 3 4
6 12 10 10 6 6 6 5 8 6 10 9 7 10 4 8 9 13 14 12 11 10 7 8 10 11 11 11 13 15 15 11 7 7 9 9 10 15 16 14 15 14 13 12 11 10 13 9 8 7 6 5 5 9 9 7 8 6 6 7 3 6 8 9 8 8 8 9 8 8 9 10 9 7 5 5 6 6 7 7 7 7 7 7 8 7 6 6 3 2 2 4 4 3 4 4 5
8 9 10 6 3 5 8 7 8 7 9 9 8 10 4 5 6 10 10 12 12 12 12 11 8 8 12 11 9 14 15 14 13 11 12 16 16 15 15 17 15 13 11 10 11 11 12 10 10 9 6 14 12 12 15 13 11 10 12 10 8 3 8 12 6 8 7 8 9 9 10 6 6 6 5 7 7 6 5 4 6 6 7 2 2 1 4 3 3 3 3 3 3 3 3 3 3
10 9 10 10 11 10 10 10 6 9 7 6 8 7 6 8 9 10 11 10 12 14 14 11 11 12 11 10 6 10 12 13 14 16 14 12 12 18 17 17 14 12 12 11 10 10 10 10 9 9 13 10 10 8 7 7 9 10 12 9 9 9 11 8 11 12 11 10 11 8 3 1 4 4 4 5 6 8 7 6 7 7 6 4 3 3 3 4 4 3 4 4 4 3 4 3 3
Wind_Direction
179 200 162 146 65 70 163 120 284 152 198 262 312 227 90 141 132 129 118 115 105 39 104 109 123 168 131 102 92 76 69 106 357 219 117 123 141 152 146 133 133 136 136 137 137 146 145 138 137 136 134 131 129 128 126 123 120 117 114 113 111 110 109 108 105 102 101 98 92 90 90 90 90 90 86 87 85 81 80 78 76 76 71 68 65 63 59 57 50 47 42 43 45 43 19 334 7
193 185 76 43 112 238 103 213 281 278 298 301 106 75 93 97 135 116 110 126 109 130 111 107 124 117 108 110 102 87 63 51 66 90 99 126 141 149 139 137 138 137 135 137 143 147 143 140 137 136 136 133 132 130 127 125 122 119 119 116 114 115 111 107 104 105 104 100 97 96 93 92 90 88 89 88 90 88 83 81 79 75 72 70 69 68 64 60 55 49 42 36 33 35 23 17 12
158 93 47 54 25 316 353 50 344 346 290 164 105 81 105 108 112 86 114 119 101 109 102 108 107 109 116 107 86 82 92 86 98 103 111 135 139 146 142 140 137 134 135 140 145 143 141 141 137 136 137 135 134 131 128 126 123 122 121 120 119 117 112 106 106 106 103 101 100 95 92 91 89 88 86 84 81 77 75 75 76 73 72 69 64 61 60 51 50 44 36 30 28 19 18 12 2
171 128 113 68 347 11 4 13 229 304 284 319 125 143 171 114 112 137 119 114 121 114 108 100 92 78 106 100 96 87 96 94 113 122 130 148 138 144 145 138 131 133 138 141 143 140 139 141 138 137 139 137 135 133 130 128 125 125 125 124 121 116 114 112 108 105 102 101 103 98 96 94 91 90 90 88 85 85 82 79 74 72 69 66 61 57 51 54 47 39 32 30 22 11 11 8 353
211 113 126 146 78 301 248 235 287 130 252 225 84 88 88 120 115 111 115 119 111 105 106 104 96 77 75 92 106 98 111 113 118 128 133 136 137 143 146 134 134 136 137 140 139 134 136 139 139 136 138 136 136 134 132 129 127 127 127 124 121 119 118 115 109 106 104 104 100 98 98 94 91 88 86 87 85 84 84 77 72 67 65 63 59 53 48 44 39 33 29 22 13 9 5 355 353
213 133 137 181 197 103 288 248 220 227 251 95 107 101 135 124 119 121 120 120 102 107 118 115 112 114 90 72 85 106 139 135 139 130 139 139 142 146 138 138 138 137 138 140 137 132 135 138 140 138 135 136 138 137 134 131 129 128 129 125 122 123 119 117 110 106 107 104 100 98 97 95 91 90 88 82 74 73 74 73 67 61 55 53 52 46 39 32 27 23 17 8 9 360 354 352 349
182 173 196 218 225 146 294 301 273 43 36 56 94 118 111 111 115 131 130 118 91 90 99 112 115 108 88 101 79 75 100 122 142 138 142 141 141 141 140 142 137 137 138 136 131 132 138 139 139 138 136 139 140 139 136 133 131 131 129 127 126 124 119 115 111 109 108 104 100 97 94 89 87 90 90 78 69 63 61 64 64 58 50 46 43 41 35 28 18 15 7 356 356 352 346 344 345
336 190 239 301 323 275 355 321 301 91 249 115 82 101 118 124 123 131 136 133 122 116 118 110 95 86 90 103 99 89 102 136 129 135 139 139 138 139 142 136 136 137 138 132 130 135 137 139 140 141 141 142 143 142 138 135 132 132 130 128 128 124 121 117 113 112 111 109 109 106 95 92 93 86 80 78 72 64 60 60 62 59 56 50 42 34 25 24 16 9 3 356 343 342 343 339 338
159 260 211 296 342 4 340 314 294 267 99 89 96 88 106 119 126 119 153 125 115 125 125 117 115 96 120 111 99 114 122 127 131 136 141 142 143 146 140 142 140 140 139 132 131 135 141 142 143 144 145 145 145 143 141 136 134 133 129 131 130 126 123 120 115 114 111 108 104 99 98 98 90 84 84 79 74 66 60 55 56 59 55 49 43 32 23 11 7 1 353 349 347 335 335 336 334
61 346 34 45 298 351 1 351 325 350 335 95 120 112 108 124 141 142 119 140 119 122 101 101 108 115 126 114 123 115 120 128 130 138 143 145 143 140 139 142 143 139 136 137 139 142 143 146 145 146 147 146 144 144 141 136 135 133 132 134 131 127 125 120 117 114 114 110 108 106 103 87 84 80 74 70 67 61 53 46 47 48 44 38 31 21 11 10 353 352 342 345 340 336 331 331 332
111 356 110 37 4 343 359 335 342 326 349 66 67 95 112 127 121 136 126 85 109 116 122 118 111 115 109 95 95 117 134 140 144 146 150 148 148 148 142 140 143 142 139 142 142 142 143 149 147 147 146 145 145 144 143 139 139 139 138 136 132 130 126 122 119 117 115 111 109 113 103 101 89 82 74 68 61 51 44 40 38 35 32 23 13 2 358 347 342 339 341 337 337 331 333 329 327
25 36 327 357 41 322 274 101 266 278 315 329 82 83 156 100 106 121 124 141 121 146 132 136 114 120 111 125 121 135 138 143 146 145 153 151 158 145 137 137 143 144 143 143 142 142 147 144 148 148 146 145 146 146 145 144 145 143 141 138 135 134 131 128 126 122 121 119 121 120 119 114 103 85 81 71 57 44 33 27 18 17 13 6 350 351 335 344 336 338 336 332 326 326 324 322 315
9 134 109 77 260 148 288 246 186 273 326 82 316 21 79 165 104 76 353 80 106 120 118 123 131 131 117 122 137 136 143 148 144 156 149 154 131 140 150 148 146 145 147 148 146 146 146 148 147 149 148 147 145 148 148 148 147 146 143 140 141 139 135 133 130 131 129 135 135 135 122 110 121 130 133 88 47 88 22 13 344 1 347 336 342 334 337 331 334 327 322 319 316 314 312 307 301
208 114 84 105 297 298 266 312 292 265 195 2 305 301 22 339 91 89 130 103 117 112 118 134 132 117 113 129 140 152 147 154 153 156 153 153 138 151 144 139 140 142 151 154 151 150 151 152 150 150 151 150 148 150 151 152 151 149 149 146 145 145 144 139 140 140 144 147 157 154 169 190 212 212 228 237 246 232 237 267 272 325 333 329 325 335 325 321 318 310 307 304 305 301 299 296 293
59 280 107 204 44 293 242 258 204 251 249 193 112 303 257 240 320 97 91 84 104 115 122 147 132 136 163 148 158 160 150 161 158 153 158 160 140 144 156 151 146 147 150 153 155 154 155 153 152 153 157 153 151 154 156 157 154 155 154 152 152 152 150 149 149 154 161 165 171 184 192 219 227 242 240 221 232 234 232 204 210 312 309 307 308 311 304 303 298 295 295 295 293 294 288 287 290
173 191 122 205 176 204 214 247 175 238 196 165 99 305 291 176 95 104 126 126 118 140 135 160 171 111 158 150 158 151 149 163 155 159 160 158 148 152 163 140 151 149 153 162 163 159 162 155 153 156 163 156 159 161 156 157 157 160 159 157 157 158 158 159 162 168 183 185 191 201 201 222 233 235 231 226 226 227 217 235 138 290 284 284 289 290 288 285 284 284 285 285 285 283 282 281 282
112 198 178 183 161 218 175 246 245 269 60 136 352 282 300 344 103 101 155 205 121 120 139 120 80 119 148 138 143 145 150 153 153 156 157 156 122 159 157 154 161 148 155 163 163 166 168 164 156 156 167 162 164 152 161 156 160 162 159 161 162 165 166 168 175 186 199 212 214 215 221 227 244 209 216 230 212 220 218 180 199 252 264 275 280 281 278 276 275 276 278 277 279 276 276 287 281
341 217 261 89 30 199 205 284 23 12 334 4 265 115 297 263 242 137 113 28 45 95 107 103 96 99 135 123 139 145 148 148 157 162 169 160 150 163 159 153 157 156 158 165 170 167 169 163 164 158 170 168 162 156 161 162 160 165 161 162 168 171 172 180 183 197 208 218 216 226 227 255 228 217 284 295 308 311 137 187 232 249 260 261 269 272 270 269 270 270 270 272 270 272 276 283 271
204 19 28 65 156 59 213 262 317 328 13 297 304 282 191 262 322 32 77 139 215 103 112 102 109 122 122 131 143 152 150 156 161 161 166 156 163 160 166 171 163 157 169 168 168 172 166 167 167 162 173 168 167 157 161 161 161 175 162 167 173 176 181 194 193 211 201 225 181 211 219 254 284 332 275 283 323 302 277 218 236 253 258 257 257 261 263 261 261 259 259 262 266 268 272 250 260
189 238 49 53 156 204 214 235 255 323 308 333 316 290 109 306 351 32 131 17 126 140 138 128 128 141 143 141 149 155 158 159 164 163 165 164 165 168 163 169 162 169 173 172 167 170 170 162 168 168 174 176 162 153 161 161 165 182 173 169 179 175 184 194 212 199 220 215 199 202 198 237 272 241 269 288 284 273 263 241 237 249 254 256 255 256 260 253 246 245 248 252 256 256 244 236 241
331 48 77 269 158 194 213 205 255 279 31 21 359 330 353 336 37 315 99 114 196 161 125 131 142 151 151 151 152 156 160 161 165 167 165 173 171 170 165 169 168 171 175 173 164 173 175 167 170 169 174 182 156 156 174 159 165 182 182 178 182 168 190 182 207 213 206 212 222 188 218 210 215 230 239 228 256 285 298 305 266 215 226 243 231 234 250 272 206 235 226 228 228 238 236 227 211
50 98 20 151 151 262 163 198 137 305 8 46 60 349 21 21 27 327 331 225 189 154 141 147 165 155 159 156 156 159 163 164 166 170 172 173 171 169 163 177 168 173 173 175 166 178 177 169 163 169 174 179 162 160 177 163 162 184 181 182 183 175 183 180 195 200 202 197 213 217 226 212 197 237 264 287 293 285 291 298 274 280 291 270 291 259 272 276 257 289 224 202 219 225 216 215 87
138 165 156 105 137 218 181 192 158 276 88 106 97 236 119 53 237 219 280 284 233 132 129 140 177 159 165 163 157 159 166 168 172 173 171 168 168 175 167 180 166 179 172 170 166 169 177 175 168 162 173 176 173 168 171 168 181 179 171 190 185 182 179 183 195 188 185 176 202 223 252 256 191 251 243 281 255 273 276 271 292 333 287 265 250 274 292 285 257 239 293 331 276 292 312 71 167
46 37 67 80 135 204 188 173 135 215 97 350 248 236 66 107 328 250 280 317 91 143 162 158 168 152 177 163 165 165 168 173 171 173 176 173 169 181 174 175 167 177 177 167 170 170 170 177 168 162 171 177 175 166 172 176 177 180 181 171 188 201 184 177 198 191 174 158 168 220 245 234 76 299 204 221 229 254 274 278 297 293 315 292 301 322 300 280 274 289 266 312 310 302 293 139 344
84 349 91 96 171 29 136 229 129 97 41 1 329 316 101 192 185 211 263 258 310 113 137 157 175 161 184 170 165 169 170 170 170 175 173 173 177 173 171 179 178 174 178 169 171 169 176 172 170 167 172 177 173 172 173 173 173 196 175 177 183 212 197 173 173 198 133 159 169 210 205 196 198 233 282 263 97 283 265 270 284 280 257 290 300 273 267 279 287 266 268 208 211 236 276 106 235
76 11 79 108 104 83 43 148 119 99 104 282 311 285 301 329 297 265 196 221 10 334 330 308 196 196 180 174 164 171 172 174 173 175 176 168 181 184 177 175 184 173 178 169 175 175 175 173 172 175 173 174 171 182 169 174 174 185 197 184 168 201 197 191 177 192 134 181 154 196 194 177 226 206 233 270 222 220 251 275 261 267 264 283 289 275 274 289 276 302 290 240 261 286 299 117 71
38 118 69 38 74 48 116 71 358 96 206 139 257 280 205 138 302 216 155 175 142 347 338 301 264 206 173 194 167 168 173 176 170 166 173 177 176 186 173 181 181 175 178 177 178 179 178 172 176 176 176 173 170 183 173 173 168 181 205 192 169 178 178 180 213 201 150 170 158 186 179 183 213 232 219 230 228 235 245 253 258 244 271 259 259 294 279 265 297 321 285 334 329 339 315 339 103
320 98 90 67 326 106 339 141 152 196 251 193 243 254 253 211 255 241 146 166 177 142 162 287 296 231 181 178 168 172 170 176 166 178 177 176 179 181 186 189 176 175 181 177 174 180 178 178 179 177 178 176 166 182 177 172 174 183 203 198 177 170 163 167 194 205 187 111 155 178 175 194 213 228 244 250 249 230 250 236 264 276 217 244 249 252 279 299 328 329 317 309 299 300 299 289 179
316 77 277 137 218 299 178 97 142 213 183 244 166 257 236 210 228 205 220 191 154 148 170 170 252 276 187 183 172 170 176 173 173 180 179 179 180 178 186 190 192 167 181 178 178 180 180 183 178 180 177 171 176 180 179 185 182 183 186 199 185 171 149 163 195 191 179 156 171 188 181 194 203 222 226 254 264 269 252 266 259 250 273 294 263 275 304 349 314 281 261 246 254 277 259 256 261
248 33 309 202 218 120 138 111 143 189 124 191 194 245 57 207 214 200 189 169 143 155 324 44 45 293 252 182 173 173 171 174 178 176 175 181 182 181 181 184 188 178 176 178 180 186 180 186 183 179 186 171 182 182 174 190 180 189 174 186 192 155 143 180 209 161 171 209 189 179 189 196 204 218 226 209 239 236 245 253 263 278 311 292 292 296 281 273 247 251 265 287 235 216 247 263 253
228 169 250 312 323 162 175 154 169 193 117 203 214 285 187 135 188 199 203 181 194 199 184 230 131 244 251 177 182 180 174 177 181 177 178 188 184 180 177 182 186 166 174 185 194 184 174 183 178 178 181 174 182 184 179 182 189 184 178 180 191 164 165 185 199 202 185 212 197 180 185 192 209 216 220 244 213 239 249 243 243 243 249 271 291 270 225 237 268 287 275 272 272 220 242 272 273
268 209 50 254 280 85 139 176 161 211 159 208 226 249 331 322 172 198 204 178 194 199 192 186 207 164 280 199 181 184 178 179 181 183 182 189 177 182 181 178 183 180 181 187 192 176 182 185 182 179 178 171 181 187 183 175 191 184 174 189 185 161 178 188 198 215 203 197 188 181 189 193 196 211 215 198 243 225 236 257 232 246 263 243 251 260 291 297 290 277 285 279 274 280 240 235 225
283 210 192 245 243 192 185 198 179 192 154 190 219 303 310 221 215 184 199 198 202 208 193 148 32 353 300 268 196 187 179 182 185 186 185 181 183 184 189 194 184 180 182 175 181 181 169 190 168 188 185 174 180 185 183 176 191 185 182 187 191 167 182 203 214 215 199 185 198 200 171 188 193 193 203 209 216 246 241 246 253 220 210 222 230 267 254 228 244 257 217 232 278 305 314 306 256
337 53 275 213 273 283 253 161 192 166 168 187 201 238 252 307 186 178 198 207 202 212 204 155 161 143 279 294 258 194 186 182 188 190 183 184 183 184 182 195 187 188 171 184 183 175 179 182 183 186 182 175 174 180 181 183 192 183 190 180 203 186 190 204 210 218 227 189 196 175 169 177 184 186 199 201 221 244 246 240 264 273 254 201 223 247 252 271 262 260 282 278 253 253 285 287 297
330 284 289 290 292 276 125 172 160 198 195 229 195 225 270 266 200 191 201 210 203 206 208 171 144 116 215 259 299 240 196 186 190 192 187 185 185 186 186 188 184 190 185 184 184 179 175 172 185 188 170 174 173 181 174 185 192 188 198 197 195 198 202 201 208 211 211 218 207 147 167 171 176 189 188 204 201 232 252 258 253 275 307 313 278 275 277 264 287 304 289 249 227 262 282 294 315
309 329 326 315 300 331 301 40 100 227 300 295 190 225 248 230 245 197 213 209 200 198 205 177 136 139 183 266 288 316 259 192 194 192 193 184 186 186 187 188 183 187 184 191 184 177 166 174 167 168 168 175 169 179 170 186 193 195 196 199 195 200 205 205 223 214 203 197 217 151 166 165 166 182 186 196 209 225 237 241 248 251 232 256 269 265 278 258 232 249 249 277 303 266 220 259 278
337 299 282 287 293 287 285 146 227 146 239 262 299 270 236 221 207 230 210 196 207 199 205 198 156 154 178 200 219 215 288 242 195 196 189 188 190 183 193 184 186 180 195 184 185 165 169 182 176 169 164 181 152 175 179 190 194 191 197 200 202 194 202 211 216 223 212 209 193 167 159 159 177 179 190 193 204 221 241 261 250 232 252 238 234 262 264 276 317 357 315 258 262 270 272 229 233
309 316 300 290 302 308 321 304 76 87 209 277 277 263 271 278 265 200 213 200 205 206 206 204 187 152 177 185 211 195 221 308 275 193 198 191 196 183 192 183 193 185 191 183 186 182 182 175 163 170 166 188 168 175 177 190 197 192 192 201 203 198 187 201 214 215 220 210 172 140 160 166 174 177 179 196 206 207 224 238 242 256 235 233 255 247 269 303 311 298 278 302 238 246 268 259 243
278 270 293 302 285 290 265 135 161 200 222 272 266 290 308 318 313 171 207 197 215 231 207 227 186 165 149 172 205 218 237 214 268 235 215 194 194 186 191 189 191 195 186 193 184 185 187 177 170 175 178 183 176 179 177 189 190 192 195 197 209 203 191 191 212 214 213 217 181 185 159 166 173 183 189 194 203 215 217 221 231 219 221 228 225 251 251 255 259 263 252 252 284 272 236 249 260
287 288 282 295 315 272 290 225 165 215 192 263 284 282 283 298 259 183 193 189 216 206 216 208 194 175 154 191 197 201 233 221 237 247 222 202 194 191 191 193 191 197 186 194 188 186 187 187 165 171 177 179 172 178 174 187 194 200 199 202 210 229 182 186 198 214 211 205 204 172 180 164 176 191 195 197 208 209 209 221 229 232 174 225 201 228 262 252 240 248 254 232 227 265 271 244 254
296 275 262 252 281 329 337 326 255 3 266 211 227 227 265 267 13 114 180 315 42 253 221 200 180 168 161 177 189 195 212 47 311 273 333 309 222 197 194 194 191 198 189 192 191 187 190 184 173 166 174 187 162 173 177 179 183 199 206 205 237 234 192 190 202 207 201 200 211 173 185 183 189 205 195 200 207 204 201 214 227 233 211 193 216 222 224 245 244 242 231 247 247 246 252 269 246
265 273 266 266 257 255 290 266 240 213 284 234 237 310 312 336 295 123 174 207 218 198 237 209 184 180 164 168 189 198 192 161 186 230 209 172 299 260 200 197 195 198 196 191 193 190 190 182 177 159 179 188 186 173 179 169 183 203 185 191 207 209 214 198 198 199 197 190 205 207 168 183 185 204 210 201 200 201 195 201 209 235 232 194 208 228 228 246 263 240 251 241 254 239 252 305 303
292 304 330 322 324 327 326 340 327 252 261 347 291 268 282 199 206 141 178 198 203 232 244 217 191 189 190 187 185 190 192 179 174 202 192 188 166 302 261 211 203 207 199 193 195 192 192 182 183 174 176 184 191 173 169 170 188 194 195 197 203 201 207 208 213 204 194 199 204 203 172 171 184 194 209 205 201 195 191 193 205 222 237 230 201 225 219 230 244 249 249 279 267 295 292 250 285
283 353 324 319 331 332 320 320 319 304 294 265 268 286 319 325 40 132 155 175 185 207 211 226 208 186 207 196 194 194 193 188 182 191 198 189 197 184 253 223 208 213 206 196 196 194 190 176 182 173 172 181 192 170 171 176 187 191 191 200 198 205 203 204 207 216 213 211 194 201 187 171 177 186 201 204 197 196 191 191 199 213 229 238 226 216 229 217 243 255 256 247 291 283 310 285 263
309 317 309 306 322 331 323 312 312 309 293 267 270 330 300 279 134 176 166 197 209 206 218 202 212 210 208 193 199 200 210 200 205 195 185 192 197 214 219 238 220 211 217 209 199 196 188 186 179 171 173 180 191 178 171 177 188 194 188 198 207 204 208 202 202 209 232 222 202 192 197 164 179 184 198 192 194 197 186 200 199 207 222 236 245 233 230 235 246 237 183 211 218 238 250 275 308
311 322 315 306 314 293 277 269 275 276 291 326 337 308 290 284 280 177 212 272 245 243 182 199 188 219 226 203 196 204 202 203 197 208 198 194 195 205 217 226 234 198 168 315 226 199 216 196 182 172 177 180 192 187 175 176 191 192 190 199 205 204 209 205 196 194 219 223 161 209 161 121 166 178 188 198 182 202 195 197 209 210 216 225 229 236 212 223 229 217 195 222 232 258 241 256 249
307 275 269 260 254 262 268 286 283 318 290 290 290 285 303 298 280 278 213 166 332 24 132 192 185 201 203 216 193 205 203 222 183 196 201 197 198 200 222 222 197 168 179 194 231 142 222 224 190 175 175 182 194 196 178 180 189 193 196 198 205 207 208 214 197 188 181 217 178 188 187 149 183 181 196 190 195 201 208 199 212 212 213 217 222 227 235 217 218 214 227 203 206 223 249 261 271
250 271 281 325 266 242 255 227 57 299 297 284 281 304 291 275 281 259 138 283 212 83 148 184 182 181 202 217 201 191 190 206 198 194 194 194 197 208 218 226 187 193 193 244 233 179 178 214 177 171 174 183 193 196 184 184 189 196 198 197 204 207 211 210 206 182 182 194 200 186 185 189 172 194 202 189 206 202 201 200 212 220 209 218 209 220 236 229 241 234 225 282 211 192 228 242 252
235 268 271 261 285 246 243 281 267 264 295 305 294 291 273 265 294 287 303 95 97 200 36 68 112 165 168 195 221 213 196 200 214 188 196 199 198 201 213 213 193 193 170 184 221 172 168 203 180 176 175 182 189 192 185 188 192 196 199 196 203 210 212 222 203 195 186 189 198 199 182 182 189 188 186 199 201 212 194 197 203 217 222 203 227 209 209 241 257 252 229 214 212 201 196 209 214
320 285 310 321 323 339 326 323 330 302 259 275 287 309 277 329 276 346 316 224 156 181 69 64 61 90 154 170 190 194 201 204 209 214 190 193 200 205 207 209 196 203 203 186 176 178 156 203 197 178 179 180 184 195 188 190 193 197 199 198 200 205 206 212 214 206 197 190 196 211 199 194 191 209 197 188 201 206 205 199 199 208 222 206 208 235 256 237 219 238 247 241 257 196 221 220 218
313 323 301 318 329 326 319 311 300 302 315 283 298 290 295 284 18 321 281 6 98 77 63 57 44 46 5 294 228 201 200 203 206 207 205 191 192 199 207 210 197 191 190 199 188 133 158 184 192 183 181 181 186 193 183 187 192 197 198 202 199 199 205 205 211 214 203 198 199 207 220 197 196 195 211 187 186 204 194 201 206 205 213 220 187 199 226 238 271 268 293 312 298 262 239 241 246
276 276 269 258 287 8 289 322 315 310 315 300 267 280 315 316 151 275 217 75 30 57 48 35 28 21 6 304 260 232 212 200 203 203 196 189 191 193 211 215 201 201 179 185 186 137 153 160 164 194 186 181 184 187 182 185 192 196 198 206 201 201 199 205 206 220 223 213 208 211 197 235 208 187 197 208 188 189 184 201 194 211 203 191 197 202 217 227 200 217 231 240 256 257 264 265 246
346 332 308 306 356 325 334 298 271 302 301 287 298 284 284 260 211 203 256 172 62 49 40 26 11 12 21 20 337 324 266 250 202 187 187 189 195 192 197 200 209 207 193 185 192 140 144 159 170 198 194 181 183 182 183 188 190 191 196 203 205 202 205 207 204 205 217 219 226 219 211 202 217 225 201 208 206 186 194 172 191 208 195 193 199 194 213 231 238 199 206 205 231 258 331 29 341
261 273 300 324 311 288 282 303 348 312 297 307 303 298 284 292 3 25 27 37 35 37 13 352 8 11 26 9 318 303 294 271 228 185 178 178 197 197 198 201 204 203 196 197 161 125 163 167 158 181 208 186 183 179 181 188 188 193 193 203 207 202 204 209 207 203 208 215 219 222 225 193 210 207 225 213 204 187 201 201 193 192 194 199 197 199 207 213 212 239 240 166 234 263 347 318 319
231 274 344 288 321 305 340 313 288 299 294 316 297 317 347 9 15 3 27 17 31 26 26 10 15 23 16 14 334 323 321 311 305 205 165 183 185 186 193 202 205 202 191 182 159 152 170 176 160 177 201 199 183 182 181 182 184 190 200 202 211 212 207 211 220 208 204 224 221 213 218 216 207 217 199 216 207 214 206 198 211 231 207 188 188 213 184 220 210 194 251 238 234 206 250 266 280
237 210 220 214 230 260 291 314 319 290 288 292 295 307 47 13 24 8 12 18 15 8 4 20 20 19 28 22 339 321 319 323 302 247 191 198 207 187 199 206 200 198 187 172 148 151 168 167 159 165 200 234 204 184 179 170 175 196 200 195 222 338 305 229 203 214 207 216 219 229 221 217 216 216 206 200 217 221 214 201 201 218 229 211 194 197 178 197 172 198 228 244 247 226 214 242 261
323 308 304 327 321 267 264 272 265 292 296 292 317 297 79 50 358 22 14 8 3 355 356 358 12 15 40 54 353 317 309 306 304 263 208 198 201 205 198 204 200 190 178 150 160 170 167 162 166 171 120 59 4 27 27 30 23 32 26 4 12 39 282 289 282 264 212 209 215 222 227 217 236 219 209 199 200 218 243 203 183 214 230 79 37 163 192 150 157 183 209 268 287 306 280 244 240
322 317 302 311 313 321 312 300 298 280 279 287 278 279 88 18 356 21 21 9 5 352 349 344 350 14 41 56 1 317 306 306 299 288 228 213 194 195 195 197 187 179 178 166 161 165 149 146 145 114 105 117 106 112 128 150 174 164 151 162 185 202 208 225 234 203 220 218 218 221 220 52 291 254 244 229 200 207 216 230 223 171 203 199 190 157 182 158 168 179 224 239 254 244 255 262 281